period_start,C,m1,H,J0,J1,J2,J3,J4,J5,JA,JB,JC,JD,JJ,JK,JN,#
2014-04-20 00:00:42,0.22,2.58,0.00,20.64,27.12,29.61,6.13,32.63,1005.81,2037.90,2506.96,2658.20,2838.08,350.06,323.15,29.02,0000 0000 0000 0000 000000
2014-04-20 00:01:42,0.13,2.58,0.00,20.64,27.12,29.57,6.12,32.33,1005.76,2037.87,2506.72,2658.07,2838.02,349.50,322.55,29.03,0000 0000 0000 0000 000000
2014-04-20 00:02:42,0.07,2.58,0.00,20.65,27.12,29.58,5.89,32.21,1005.83,2037.82,2506.31,2658.02,2837.90,348.97,322.27,29.03,0000 0000 0000 0000 000000
2014-04-20 00:03:43,0.08,2.58,0.00,20.64,27.12,29.54,5.97,32.38,1005.84,2037.82,2506.10,2657.97,2837.55,349.77,322.05,29.04,0000 0000 0000 0000 000000
2014-04-20 00:04:43,0.09,2.58,0.00,20.65,27.13,29.55,6.14,32.42,1005.80,2037.79,2505.99,2657.81,2837.21,349.25,322.39,29.04,0000 0000 0000 0000 000000
2014-04-20 00:05:43,0.11,2.58,0.00,20.66,27.14,29.57,6.10,32.42,1005.78,2037.84,2505.82,2657.48,2837.08,351.15,324.13,29.05,0000 0000 0000 0000 000000
2014-04-20 00:06:43,0.21,2.58,0.00,20.67,27.15,29.61,6.02,32.13,1005.84,2037.81,2505.34,2657.18,2837.02,349.51,322.63,29.06,0000 0000 0000 0000 000000
2014-04-20 00:07:44,0.12,2.58,0.00,20.66,27.15,29.64,5.97,32.29,1005.85,2037.84,2505.10,2657.07,2836.97,349.84,322.95,29.06,0000 0000 0000 0000 000000
2014-04-20 00:08:44,0.14,2.58,0.00,20.67,27.15,29.66,6.02,32.67,1005.82,2037.74,2504.86,2657.00,2836.59,349.68,323.20,29.07,0000 0000 0000 0000 000000
2014-04-20 00:09:44,0.08,2.58,0.00,20.69,27.15,29.61,5.98,32.50,1005.83,2037.63,2504.39,2656.88,2836.21,349.51,322.46,29.07,0000 0000 0000 0000 000000
2014-04-20 00:10:45,0.04,2.58,0.00,20.69,27.15,29.64,5.96,32.33,1005.81,2037.52,2504.15,2656.59,2836.08,349.39,322.48,29.08,0000 0000 0000 0000 000000
2014-04-20 00:11:45,0.14,2.59,0.00,20.69,27.15,29.59,5.92,32.21,1005.81,2037.67,2504.05,2656.29,2836.02,348.91,322.38,29.09,0000 0000 0000 0000 000000
2014-04-20 00:12:45,0.19,2.59,0.00,20.69,27.17,29.56,6.07,32.08,1005.86,2037.69,2503.90,2656.14,2835.98,350.09,323.09,29.09,0000 0000 0000 0000 000000
2014-04-20 00:13:46,0.12,2.59,0.00,20.68,27.17,29.64,6.09,32.33,1005.82,2037.70,2503.44,2656.05,2835.72,350.28,323.39,29.10,0000 0000 0000 0000 000000
2014-04-20 00:14:46,0.15,2.59,0.00,20.69,27.17,29.63,5.95,32.25,1005.83,2037.62,2503.16,2656.00,2835.32,349.18,322.06,29.10,0000 0000 0000 0000 000000
2014-04-20 00:15:46,-0.03,2.59,0.00,20.71,27.17,29.66,6.01,32.50,1005.78,2037.31,2503.03,2655.80,2835.12,350.17,323.48,29.11,0000 0000 0000 0000 000000
2014-04-20 00:16:46,-0.08,2.59,0.00,20.73,27.17,29.60,6.20,32.33,1005.74,2037.19,2502.97,2655.46,2835.03,350.61,324.27,29.11,0000 0000 0000 0000 000000
2014-04-20 00:17:47,0.03,2.59,0.00,20.74,27.17,29.63,6.12,32.17,1005.55,2037.14,2502.88,2655.21,2834.91,350.33,323.58,29.12,0000 0000 0000 0000 000000
2014-04-20 00:18:47,0.07,2.59,0.00,20.74,27.19,29.61,6.05,32.08,1005.53,2037.08,2502.57,2655.08,2834.57,350.45,323.51,29.13,0000 0000 0000 0000 000000
2014-04-20 00:19:47,0.12,2.59,0.00,20.74,27.20,29.66,6.03,32.54,1005.54,2037.05,2502.21,2655.01,2834.23,350.73,323.47,29.13,0000 0000 0000 0000 000000
2014-04-20 00:20:47,0.12,2.59,0.00,20.74,27.20,29.69,6.03,32.38,1005.53,2037.05,2502.06,2654.92,2834.08,349.91,322.88,29.14,0000 0000 0000 0000 000000
2014-04-20 00:21:48,0.06,2.59,0.00,20.75,27.20,29.67,6.04,32.46,1005.54,2037.03,2501.85,2654.58,2834.02,349.97,322.86,29.14,0000 0000 0000 0000 000000
2014-04-20 00:22:48,0.14,2.59,0.00,20.75,27.20,29.64,5.92,32.17,1005.70,2037.04,2501.45,2654.25,2833.90,349.78,322.74,29.15,0000 0000 0000 0000 000000
2014-04-20 00:23:48,0.21,2.59,0.00,20.75,27.20,29.64,5.99,32.29,1005.78,2037.04,2501.17,2654.09,2833.54,350.25,323.19,29.16,0000 0000 0000 0000 000000
2014-04-20 00:24:48,0.16,2.59,0.00,20.75,27.20,29.64,5.95,32.42,1005.80,2037.02,2501.05,2654.03,2833.22,349.11,322.56,29.16,0000 0000 0000 0000 000000
2014-04-20 00:25:49,0.11,2.59,0.00,20.76,27.22,29.68,6.01,32.04,1005.80,2037.05,2500.72,2654.00,2833.08,350.79,323.69,29.17,0000 0000 0000 0000 000000
2014-04-20 00:26:49,0.08,2.59,0.00,20.77,27.22,29.71,6.10,32.17,1005.83,2037.05,2500.38,2653.75,2833.03,349.48,322.48,29.17,0000 0000 0000 0000 000000
2014-04-20 00:27:49,0.18,2.60,0.00,20.77,27.22,29.64,6.08,32.00,1005.83,2037.03,2500.03,2653.31,2832.94,350.48,323.41,29.18,0000 0000 0000 0000 000000
2014-04-20 00:28:50,0.23,2.60,0.00,20.78,27.22,29.67,6.09,32.13,1005.85,2037.02,2499.52,2653.11,2832.53,351.17,323.67,29.18,0000 0000 0000 0000 000000
2014-04-20 00:29:50,0.19,2.60,0.00,20.79,27.22,29.57,5.98,32.29,1005.86,2037.02,2499.19,2653.04,2832.25,349.48,322.62,29.19,0000 0000 0000 0000 000000
2014-04-20 00:30:50,0.14,2.60,0.00,20.79,27.23,29.60,6.00,32.54,1005.87,2037.03,2499.05,2652.97,2832.09,349.57,322.55,29.20,0000 0000 0000 0000 000000
2014-04-20 00:31:50,0.09,2.60,0.00,20.81,27.24,29.75,5.92,32.50,1005.87,2037.01,2498.75,2652.53,2832.03,349.56,322.38,29.20,0000 0000 0000 0000 000000
2014-04-20 00:32:51,0.18,2.60,0.00,20.82,27.25,29.76,6.02,32.29,1005.87,2037.01,2498.50,2652.19,2831.81,349.94,322.87,29.21,0000 0000 0000 0000 000000
2014-04-20 00:33:51,0.20,2.60,0.00,20.82,27.25,29.75,6.00,32.42,1005.87,2037.00,2498.19,2652.08,2831.45,349.95,322.66,29.21,0000 0000 0000 0000 000000
2014-04-20 00:34:51,0.13,2.60,0.00,20.82,27.25,29.68,6.06,32.13,1005.87,2037.00,2498.07,2652.03,2831.19,349.56,322.96,29.22,0000 0000 0000 0000 000000
2014-04-20 00:35:51,0.08,2.60,0.00,20.84,27.25,29.69,6.07,32.42,1005.87,2037.00,2497.98,2652.01,2831.07,350.42,323.65,29.23,0000 0000 0000 0000 000000
2014-04-20 00:36:51,0.05,2.60,0.00,20.84,27.25,29.77,6.10,32.29,1005.87,2037.00,2497.61,2651.94,2831.02,350.39,322.88,29.23,0000 0000 0000 0000 000000
2014-04-20 00:37:52,0.13,2.60,0.00,20.84,27.26,29.77,6.13,32.33,1005.87,2037.00,2497.23,2651.52,2830.92,351.00,323.90,29.24,0000 0000 0000 0000 000000
2014-04-20 00:38:52,0.20,2.61,0.00,20.86,27.27,29.82,5.99,32.29,1005.87,2037.00,2497.07,2651.21,2830.58,349.07,321.69,29.24,0000 0000 0000 0000 000000
2014-04-20 00:39:52,0.19,2.61,0.00,20.87,27.27,29.81,6.18,32.38,1005.87,2037.00,2496.73,2651.07,2830.22,349.81,322.68,29.25,0000 0000 0000 0000 000000
2014-04-20 00:40:53,0.17,2.61,0.00,20.89,27.27,29.83,6.13,32.38,1005.87,2037.00,2496.32,2651.01,2830.08,350.96,323.93,29.26,0000 0000 0000 0000 000000
2014-04-20 00:41:53,0.12,2.61,0.00,20.89,27.27,29.82,6.02,32.21,1005.87,2037.00,2496.13,2650.99,2830.03,350.39,323.20,29.26,0000 0000 0000 0000 000000
2014-04-20 00:42:53,0.05,2.61,0.00,20.91,27.28,29.81,5.89,32.46,1005.87,2037.00,2496.05,2650.71,2829.92,349.93,322.75,29.27,0000 0000 0000 0000 000000
2014-04-20 00:43:53,0.13,2.61,0.00,20.91,27.29,29.83,6.22,32.42,1005.87,2037.00,2495.88,2650.33,2829.56,350.76,323.52,29.27,0000 0000 0000 0000 000000
2014-04-20 00:44:54,0.20,2.61,0.00,20.92,27.30,29.78,6.04,32.38,1005.87,2037.00,2495.49,2650.12,2829.24,349.37,322.23,29.28,0000 0000 0000 0000 000000
2014-04-20 00:45:54,0.19,2.61,0.00,20.92,27.30,29.73,6.12,32.08,1005.87,2037.00,2495.17,2650.04,2829.08,351.17,323.88,29.28,0000 0000 0000 0000 000000
2014-04-20 00:46:54,0.09,2.61,0.00,20.92,27.30,29.76,6.10,32.33,1005.87,2037.00,2495.02,2650.01,2829.02,349.71,322.54,29.29,0000 0000 0000 0000 000000
2014-04-20 00:47:54,0.05,2.61,0.00,20.91,27.30,29.74,5.99,32.29,1005.87,2037.00,2494.88,2649.88,2828.95,349.29,322.16,29.30,0000 0000 0000 0000 000000
2014-04-20 00:48:54,0.07,2.61,0.00,20.92,27.31,29.62,6.11,32.42,1005.87,2037.00,2494.61,2649.45,2828.54,350.34,322.98,29.30,0000 0000 0000 0000 000000
2014-04-20 00:49:55,0.30,2.61,0.00,20.93,27.32,29.64,5.92,32.42,1005.87,2037.00,2494.26,2649.18,2828.20,349.73,322.79,29.31,0000 0000 0000 0000 000000
2014-04-20 00:50:55,0.18,2.62,0.00,20.94,27.32,29.69,6.02,32.38,1005.87,2037.00,2494.09,2649.07,2828.07,349.31,322.41,29.31,0000 0000 0000 0000 000000
2014-04-20 00:51:55,0.07,2.62,0.00,20.96,27.32,29.68,5.93,32.38,1005.87,2037.00,2494.01,2649.02,2828.02,349.71,322.50,29.32,0000 0000 0000 0000 000000
2014-04-20 00:52:55,0.03,2.62,0.00,20.98,27.32,29.74,6.05,32.08,1005.88,2037.00,2493.74,2648.96,2827.98,349.89,322.59,29.33,0000 0000 0000 0000 000000
2014-04-20 00:53:56,0.11,2.62,0.00,21.00,27.33,29.72,6.03,32.25,1005.88,2037.00,2493.38,2648.81,2827.76,349.91,322.20,29.33,0000 0000 0000 0000 000000
2014-04-20 00:54:56,0.19,2.62,0.00,21.00,27.34,29.77,6.00,32.13,1005.87,2037.00,2493.11,2648.36,2827.32,350.65,323.32,29.34,0000 0000 0000 0000 000000
2014-04-20 00:55:56,0.23,2.62,0.00,21.00,27.35,29.75,6.00,32.33,1005.89,2036.99,2493.00,2648.13,2827.11,350.17,322.62,29.34,0000 0000 0000 0000 000000
2014-04-20 00:56:56,0.11,2.62,0.00,21.00,27.35,29.67,5.98,32.25,1005.89,2036.99,2492.78,2648.05,2827.04,349.97,322.60,29.35,0000 0000 0000 0000 000000
2014-04-20 00:57:57,0.09,2.62,0.00,21.02,27.35,29.73,5.97,32.33,1005.90,2036.99,2492.46,2648.01,2827.00,349.36,322.08,29.35,0000 0000 0000 0000 000000
2014-04-20 00:58:57,0.07,2.62,0.00,21.04,27.35,29.72,5.95,32.08,1005.89,2036.99,2492.17,2647.95,2826.75,348.90,321.88,29.36,0000 0000 0000 0000 000000
2014-04-20 00:59:57,0.13,2.62,0.00,21.04,27.36,29.71,6.03,32.29,1005.88,2036.99,2492.04,2647.70,2826.36,350.67,323.47,29.37,0000 0000 0000 0000 000000
2014-04-20 01:00:57,0.18,2.62,0.00,21.05,27.37,29.72,6.06,32.17,1005.91,2036.98,2491.73,2647.36,2826.13,349.85,322.44,29.37,0000 0000 0000 0000 000000
2014-04-20 01:01:58,0.19,2.62,0.00,21.07,27.37,29.72,5.91,31.92,1005.90,2036.97,2491.31,2647.15,2826.05,349.36,322.06,29.38,0000 0000 0000 0000 000000
2014-04-20 01:02:58,0.14,2.62,0.00,21.08,27.37,29.71,5.99,32.33,1005.88,2036.97,2491.12,2647.04,2825.94,349.79,322.45,29.38,0000 0000 0000 0000 000000
2014-04-20 01:03:58,0.09,2.63,0.00,21.09,27.38,29.71,6.00,32.29,1005.89,2036.96,2491.00,2646.94,2825.59,350.08,322.70,29.39,0000 0000 0000 0000 000000
2014-04-20 01:04:58,0.10,2.63,0.00,21.09,27.39,29.77,6.02,32.13,1005.88,2036.95,2490.60,2646.72,2825.25,349.78,322.42,29.40,0000 0000 0000 0000 000000
2014-04-20 01:05:59,0.22,2.63,0.00,21.13,27.40,29.77,5.97,32.13,1005.88,2036.97,2490.25,2646.36,2825.10,350.44,322.30,29.40,0000 0000 0000 0000 000000
2014-04-20 01:06:59,0.20,2.63,0.00,21.14,27.40,29.78,6.03,31.83,1005.88,2036.97,2490.09,2646.15,2825.04,350.39,322.93,29.41,0000 0000 0000 0000 000000
2014-04-20 01:07:59,0.11,2.63,0.00,21.14,27.40,29.86,6.08,32.04,1005.89,2036.98,2490.03,2646.05,2825.01,350.06,323.07,29.41,0000 0000 0000 0000 000000
2014-04-20 01:08:59,0.04,2.63,0.00,21.16,27.41,29.82,5.92,32.21,1005.88,2036.98,2489.93,2646.01,2824.80,349.18,321.90,29.42,0000 0000 0000 0000 000000
2014-04-20 01:10:00,0.10,2.63,0.00,21.18,27.42,29.78,6.07,32.17,1005.89,2036.97,2489.53,2645.93,2824.35,349.25,321.85,29.43,0000 0000 0000 0000 000000
2014-04-20 01:11:00,0.16,2.63,0.00,21.19,27.42,29.79,6.14,32.21,1005.89,2036.95,2489.19,2645.63,2824.14,350.39,322.88,29.43,0000 0000 0000 0000 000000
2014-04-20 01:12:00,0.17,2.63,0.00,21.19,27.42,29.80,6.12,32.00,1005.91,2036.91,2489.07,2645.26,2824.05,351.02,323.46,29.44,0000 0000 0000 0000 000000
2014-04-20 01:13:00,0.10,2.63,0.00,21.21,27.42,29.91,6.19,31.92,1005.89,2036.89,2488.89,2645.10,2824.01,351.11,323.80,29.44,0000 0000 0000 0000 000000
2014-04-20 01:14:00,0.11,2.63,0.00,21.22,27.44,30.05,6.05,32.25,1005.89,2036.84,2488.63,2645.03,2823.85,349.67,321.99,29.45,0000 0000 0000 0000 000000
2014-04-20 01:15:01,0.03,2.63,0.00,21.22,27.45,30.14,5.91,32.17,1005.92,2036.62,2488.42,2644.99,2823.41,349.71,322.31,29.45,0000 0000 0000 0000 000000
2014-04-20 01:16:01,-0.07,2.63,0.00,21.25,27.45,30.22,6.02,32.04,1005.96,2036.42,2488.13,2644.75,2823.15,350.58,323.37,29.46,0000 0000 0000 0000 000000
2014-04-20 01:17:01,0.00,2.63,0.00,21.30,27.45,30.28,6.14,32.13,1005.99,2036.20,2487.95,2644.33,2823.05,350.52,322.91,29.47,0000 0000 0000 0000 000000
2014-04-20 01:18:01,-0.01,2.63,0.00,21.33,27.46,30.31,6.12,32.29,1006.03,2036.18,2487.57,2644.13,2822.98,348.84,321.16,29.47,0000 0000 0000 0000 000000
2014-04-20 01:19:01,0.16,2.63,0.00,21.38,27.47,30.38,6.05,32.08,1006.17,2036.21,2487.20,2644.05,2822.63,350.07,322.46,29.48,0000 0000 0000 0000 000000
2014-04-20 01:20:02,0.18,2.63,0.00,21.43,27.47,30.42,6.02,32.04,1006.16,2036.24,2487.03,2643.99,2822.26,349.50,322.03,29.48,0000 0000 0000 0000 000000
2014-04-20 01:21:02,0.17,2.64,0.00,21.47,27.47,30.46,6.00,32.25,1006.16,2036.24,2486.92,2643.92,2822.09,348.98,321.19,29.49,0000 0000 0000 0000 000000
2014-04-20 01:22:02,0.04,2.64,0.00,21.49,27.49,30.44,6.01,32.04,1006.11,2036.14,2486.78,2643.64,2822.03,349.06,321.59,29.50,0000 0000 0000 0000 000000
2014-04-20 01:23:02,0.05,2.64,0.00,21.51,27.50,30.44,5.98,32.17,1006.09,2036.09,2486.37,2643.28,2821.97,350.28,322.19,29.50,0000 0000 0000 0000 000000
2014-04-20 01:24:03,0.15,2.64,0.00,21.53,27.50,30.48,5.97,32.04,1006.07,2036.06,2486.15,2643.10,2821.73,348.87,321.37,29.51,0000 0000 0000 0000 000000
2014-04-20 01:25:03,0.12,2.64,0.00,21.56,27.51,30.48,6.11,32.13,1006.12,2036.03,2485.88,2643.03,2821.31,350.59,322.74,29.51,0000 0000 0000 0000 000000
2014-04-20 01:26:03,0.11,2.64,0.00,21.58,27.52,30.46,5.96,32.29,1006.13,2036.04,2485.61,2642.99,2821.11,348.42,320.71,29.52,0000 0000 0000 0000 000000
2014-04-20 01:27:03,0.08,2.64,0.00,21.62,27.52,30.45,6.06,32.13,1006.12,2036.02,2485.36,2642.72,2821.03,349.88,322.02,29.52,0000 0000 0000 0000 000000
2014-04-20 01:28:04,0.17,2.64,0.00,21.66,27.53,30.46,6.18,32.21,1006.17,2036.02,2485.15,2642.33,2820.99,350.28,322.35,29.53,0000 0000 0000 0000 000000
2014-04-20 01:29:04,0.17,2.64,0.00,21.69,27.55,30.46,5.91,32.08,1006.20,2036.02,2485.02,2642.13,2820.72,349.06,321.21,29.54,0000 0000 0000 0000 000000
2014-04-20 01:30:04,0.12,2.64,0.00,21.72,27.55,30.45,6.08,32.29,1006.15,2036.00,2484.84,2642.04,2820.30,350.37,322.56,29.54,0000 0000 0000 0000 000000
2014-04-20 01:31:05,0.12,2.64,0.00,21.76,27.56,30.45,6.06,32.38,1006.18,2036.00,2484.58,2641.99,2820.10,350.70,322.67,29.55,0000 0000 0000 0000 000000
2014-04-20 01:32:05,0.09,2.64,0.00,21.80,27.57,30.44,6.00,32.29,1006.24,2036.00,2484.21,2641.63,2820.01,349.70,321.94,29.55,0000 0000 0000 0000 000000
2014-04-20 01:33:05,0.22,2.64,0.00,21.82,27.57,30.45,6.00,32.42,1006.21,2036.00,2483.98,2641.24,2819.67,349.74,321.69,29.56,0000 0000 0000 0000 000000
2014-04-20 01:34:05,0.23,2.65,0.00,21.84,27.58,30.44,6.04,32.08,1006.29,2036.00,2483.66,2641.09,2819.29,350.61,322.58,29.57,0000 0000 0000 0000 000000
2014-04-20 01:35:05,0.15,2.65,0.00,21.88,27.59,30.42,6.01,31.92,1006.25,2036.00,2483.41,2641.03,2819.11,350.41,322.27,29.57,0000 0000 0000 0000 000000
2014-04-20 01:36:06,0.08,2.65,0.00,21.91,27.60,30.36,5.92,31.92,1006.26,2036.00,2483.20,2640.99,2819.04,349.89,321.44,29.58,0000 0000 0000 0000 000000
2014-04-20 01:37:06,0.07,2.65,0.00,21.93,27.60,30.30,6.06,31.92,1006.25,2036.00,2483.07,2640.93,2818.99,350.24,322.05,29.58,0000 0000 0000 0000 000000
2014-04-20 01:38:06,0.04,2.65,0.00,21.96,27.62,30.28,6.13,31.75,1006.30,2036.00,2482.95,2640.57,2818.85,350.40,322.42,29.59,0000 0000 0000 0000 000000
2014-04-20 01:39:06,0.19,2.65,0.00,21.98,27.62,30.28,6.06,31.92,1006.34,2035.98,2482.62,2640.22,2818.51,350.38,322.08,29.60,0000 0000 0000 0000 000000
2014-04-20 01:40:06,0.22,2.65,0.00,22.00,27.63,30.27,6.00,31.75,1006.36,2035.99,2482.23,2640.08,2818.20,349.83,321.51,29.60,0000 0000 0000 0000 000000
2014-04-20 01:41:06,0.16,2.65,0.00,22.02,27.64,30.28,6.09,31.96,1006.36,2035.98,2481.97,2640.02,2818.07,349.97,321.83,29.61,0000 0000 0000 0000 000000
2014-04-20 01:42:07,0.09,2.65,0.00,22.04,27.65,30.28,5.87,31.88,1006.36,2035.99,2481.56,2639.90,2818.01,349.19,321.28,29.61,0000 0000 0000 0000 000000
2014-04-20 01:43:07,0.15,2.65,0.00,22.06,27.65,30.28,5.88,31.75,1006.36,2035.99,2481.21,2639.47,2817.82,350.07,321.92,29.62,0000 0000 0000 0000 000000
2014-04-20 01:44:07,0.22,2.65,0.00,22.08,27.67,30.29,5.98,31.92,1006.36,2035.98,2480.98,2639.18,2817.36,349.81,321.52,29.62,0000 0000 0000 0000 000000
2014-04-20 01:45:07,0.21,2.66,0.00,22.10,27.67,30.30,6.14,32.00,1006.36,2035.99,2480.60,2639.06,2817.13,351.00,322.36,29.63,0000 0000 0000 0000 000000
2014-04-20 01:46:08,0.15,2.66,0.00,22.12,27.68,30.29,5.94,31.79,1006.36,2035.98,2480.24,2639.00,2817.03,349.98,321.37,29.64,0000 0000 0000 0000 000000
2014-04-20 01:47:08,0.09,2.66,0.00,22.14,27.69,30.28,6.08,32.21,1006.36,2035.96,2480.09,2638.81,2816.92,350.11,321.74,29.64,0000 0000 0000 0000 000000
2014-04-20 01:48:08,0.07,2.66,0.00,22.16,27.70,30.31,6.11,32.00,1006.36,2035.97,2480.03,2638.46,2816.67,350.17,321.77,29.65,0000 0000 0000 0000 000000
2014-04-20 01:49:08,0.19,2.66,0.00,22.19,27.70,30.31,6.08,32.08,1006.37,2035.92,2479.87,2638.21,2816.35,350.47,322.01,29.65,0000 0000 0000 0000 000000
2014-04-20 01:50:09,0.12,2.66,0.00,22.20,27.72,30.32,6.03,32.04,1006.36,2035.82,2479.41,2638.07,2816.13,350.42,321.96,29.66,0000 0000 0000 0000 000000
2014-04-20 01:51:09,0.06,2.66,0.00,22.22,27.72,30.31,5.98,32.00,1006.36,2035.84,2479.14,2638.01,2816.04,349.78,321.33,29.67,0000 0000 0000 0000 000000
2014-04-20 01:52:09,0.09,2.66,0.00,22.24,27.72,30.31,6.03,32.08,1006.36,2035.81,2478.67,2637.82,2815.94,349.45,321.03,29.67,0000 0000 0000 0000 000000
2014-04-20 01:53:09,0.16,2.66,0.00,22.26,27.74,30.33,5.88,32.04,1006.37,2035.73,2478.30,2637.39,2815.63,349.66,321.19,29.68,0000 0000 0000 0000 000000
2014-04-20 01:54:09,0.21,2.66,0.00,22.28,27.75,30.33,5.94,32.04,1006.36,2035.71,2478.09,2637.14,2815.28,349.62,321.17,29.68,0000 0000 0000 0000 000000
2014-04-20 01:55:10,0.16,2.66,0.00,22.29,27.75,30.34,6.00,32.13,1006.36,2035.62,2477.84,2637.05,2815.12,349.86,321.32,29.69,0000 0000 0000 0000 000000
2014-04-20 01:56:10,-0.01,2.66,0.00,22.32,27.76,30.35,5.82,32.21,1006.38,2035.44,2477.36,2636.99,2815.03,349.07,320.82,29.69,0000 0000 0000 0000 000000
2014-04-20 01:57:10,0.00,2.66,0.00,22.33,27.77,30.36,6.16,32.21,1006.36,2035.34,2477.13,2636.87,2814.89,351.02,321.92,29.70,0000 0000 0000 0000 000000
2014-04-20 01:58:10,-0.01,2.66,0.00,22.35,27.77,30.36,6.04,32.08,1006.36,2035.23,2476.96,2636.44,2814.51,349.50,321.06,29.71,0000 0000 0000 0000 000000
2014-04-20 01:59:10,0.17,2.66,0.00,22.38,27.78,30.34,5.96,32.13,1006.36,2035.20,2476.58,2636.16,2814.21,350.42,321.76,29.71,0000 0000 0000 0000 000000
2014-04-20 02:00:10,0.18,2.67,0.00,22.39,27.80,30.36,6.04,32.17,1006.36,2035.21,2476.28,2636.05,2814.07,350.47,321.79,29.72,0000 0000 0000 0000 000000
2014-04-20 02:01:11,0.13,2.67,0.00,22.41,27.80,30.37,6.19,32.21,1006.36,2035.13,2476.13,2636.01,2814.02,350.46,321.76,29.72,0000 0000 0000 0000 000000
2014-04-20 02:02:11,-0.04,2.67,0.00,22.42,27.81,30.38,6.02,32.08,1006.36,2035.08,2476.10,2635.98,2813.94,350.55,321.97,29.73,0000 0000 0000 0000 000000
2014-04-20 02:03:11,-0.01,2.67,0.00,22.44,27.82,30.39,5.87,32.33,1006.36,2035.06,2476.00,2635.67,2813.55,349.09,320.18,29.74,0000 0000 0000 0000 000000
2014-04-20 02:04:11,0.21,2.67,0.00,22.45,27.82,30.39,5.99,32.21,1006.36,2035.04,2475.93,2635.28,2813.21,349.51,320.85,29.74,0000 0000 0000 0000 000000
2014-04-20 02:05:11,0.15,2.67,0.00,22.47,27.82,30.36,5.97,32.08,1006.36,2035.01,2475.71,2635.10,2813.07,349.77,321.10,29.75,0000 0000 0000 0000 000000
2014-04-20 02:06:12,0.09,2.67,0.00,22.48,27.84,30.36,6.05,32.38,1006.34,2035.00,2475.33,2635.03,2813.00,350.12,321.21,29.75,0000 0000 0000 0000 000000
2014-04-20 02:07:12,0.09,2.67,0.00,22.49,27.85,30.41,6.16,32.38,1006.36,2035.00,2475.13,2634.99,2812.82,350.95,322.27,29.76,0000 0000 0000 0000 000000
2014-04-20 02:08:12,0.08,2.67,0.00,22.50,27.85,30.40,5.98,32.38,1006.36,2035.00,2475.04,2634.80,2812.41,349.50,320.92,29.76,0000 0000 0000 0000 000000
2014-04-20 02:09:12,0.16,2.67,0.00,22.52,27.86,30.38,6.07,32.29,1006.35,2035.00,2474.86,2634.38,2812.16,350.85,322.02,29.77,0000 0000 0000 0000 000000
2014-04-20 02:10:13,0.20,2.67,0.00,22.54,27.87,30.42,5.90,32.38,1006.24,2034.99,2474.48,2634.15,2812.05,349.55,321.00,29.78,0000 0000 0000 0000 000000
2014-04-20 02:11:13,0.15,2.67,0.00,22.56,27.87,30.44,6.08,32.29,1006.27,2034.99,2474.18,2634.05,2811.97,350.61,321.71,29.78,0000 0000 0000 0000 000000
2014-04-20 02:12:13,0.11,2.67,0.00,22.57,27.87,30.43,6.15,32.25,1006.30,2034.99,2473.87,2633.99,2811.62,349.54,320.72,29.79,0000 0000 0000 0000 000000
2014-04-20 02:13:13,0.15,2.67,0.00,22.59,27.89,30.46,6.05,32.50,1006.28,2034.99,2473.49,2633.73,2811.26,349.22,320.40,29.79,0000 0000 0000 0000 000000
2014-04-20 02:14:14,0.23,2.68,0.00,22.60,27.90,30.47,5.98,32.13,1006.34,2034.98,2473.22,2633.38,2811.09,350.69,321.76,29.80,0000 0000 0000 0000 000000
2014-04-20 02:15:14,0.16,2.68,0.00,22.61,27.90,30.46,6.08,32.38,1006.29,2034.99,2473.02,2633.14,2811.03,350.89,321.91,29.81,0000 0000 0000 0000 000000
2014-04-20 02:16:14,0.12,2.68,0.00,22.62,27.90,30.47,6.09,32.42,1006.22,2034.97,2472.89,2633.05,2810.93,351.08,322.05,29.81,0000 0000 0000 0000 000000
2014-04-20 02:17:15,0.06,2.68,0.00,22.62,27.92,30.46,6.08,31.96,1006.27,2034.98,2472.62,2633.01,2810.63,350.15,321.31,29.82,0000 0000 0000 0000 000000
2014-04-20 02:18:15,0.15,2.68,0.00,22.63,27.92,30.47,6.06,32.08,1006.27,2034.98,2472.24,2632.97,2810.27,350.29,321.33,29.82,0000 0000 0000 0000 000000
2014-04-20 02:19:15,0.15,2.68,0.00,22.64,27.92,30.44,6.02,32.21,1006.08,2034.99,2471.94,2632.57,2810.10,349.87,320.88,29.83,0000 0000 0000 0000 000000
2014-04-20 02:20:15,0.21,2.68,0.00,22.66,27.92,30.48,5.94,32.33,1006.00,2034.94,2471.88,2632.23,2810.03,349.79,320.79,29.83,0000 0000 0000 0000 000000
2014-04-20 02:21:15,0.07,2.68,0.00,22.67,27.94,30.50,6.09,32.38,1006.06,2034.94,2471.75,2632.09,2810.00,350.81,321.69,29.84,0000 0000 0000 0000 000000
2014-04-20 02:22:16,0.07,2.68,0.00,22.69,27.95,30.48,5.93,32.38,1006.08,2034.95,2471.30,2632.03,2809.69,349.62,321.12,29.85,0000 0000 0000 0000 000000
2014-04-20 02:23:16,0.17,2.68,0.00,22.71,27.95,30.46,5.81,32.33,1006.14,2034.92,2471.10,2631.98,2809.29,350.09,321.50,29.85,0000 0000 0000 0000 000000
2014-04-20 02:24:16,0.10,2.68,0.00,22.72,27.95,30.48,6.00,32.38,1006.23,2034.90,2470.73,2631.67,2809.10,350.30,321.48,29.86,0000 0000 0000 0000 000000
2014-04-20 02:25:16,0.21,2.68,0.00,22.72,27.96,30.48,6.08,32.17,1006.15,2034.90,2470.34,2631.28,2809.03,350.64,321.53,29.86,0000 0000 0000 0000 000000
2014-04-20 02:26:17,0.16,2.69,0.00,22.74,27.97,30.51,5.95,32.42,1006.05,2034.88,2470.13,2631.10,2808.99,350.53,320.83,29.87,0000 0000 0000 0000 000000
2014-04-20 02:27:17,0.08,2.69,0.00,22.75,27.97,30.51,5.92,32.29,1005.95,2034.83,2470.00,2631.03,2808.72,349.49,320.33,29.88,0000 0000 0000 0000 000000
2014-04-20 02:28:17,0.05,2.69,0.00,22.76,27.97,30.53,5.98,32.29,1005.96,2034.69,2469.70,2630.98,2808.33,349.45,320.70,29.88,0000 0000 0000 0000 000000
2014-04-20 02:29:17,0.03,2.69,0.00,22.78,27.98,30.54,6.18,32.46,1005.90,2034.56,2469.26,2630.77,2808.11,350.26,320.93,29.89,0000 0000 0000 0000 000000
2014-04-20 02:30:17,0.05,2.69,0.00,22.79,27.99,30.52,6.06,32.38,1005.91,2034.44,2469.09,2630.37,2808.03,350.43,321.06,29.89,0000 0000 0000 0000 000000
2014-04-20 02:31:18,0.07,2.69,0.00,22.80,28.00,30.57,5.92,32.42,1005.89,2034.30,2468.64,2630.13,2807.87,349.40,320.16,29.90,0000 0000 0000 0000 000000
2014-04-20 02:32:18,0.07,2.69,0.00,22.82,28.00,30.57,5.94,32.46,1005.90,2034.21,2468.25,2630.04,2807.46,349.70,320.48,29.91,0000 0000 0000 0000 000000
2014-04-20 02:33:18,0.09,2.69,0.00,22.83,28.00,30.51,5.92,32.13,1005.90,2034.09,2468.08,2629.93,2807.17,349.67,320.44,29.91,0000 0000 0000 0000 000000
2014-04-20 02:34:18,0.01,2.69,0.00,22.84,28.00,30.51,6.01,32.29,1005.90,2034.07,2467.91,2629.71,2807.06,349.87,320.61,29.92,0000 0000 0000 0000 000000
2014-04-20 02:35:19,0.11,2.69,0.00,22.84,28.02,30.57,5.88,32.38,1005.89,2034.07,2467.52,2629.31,2806.99,349.78,320.60,29.92,0000 0000 0000 0000 000000
2014-04-20 02:36:19,0.22,2.69,0.00,22.86,28.02,30.55,6.14,32.25,1005.89,2034.05,2467.19,2629.11,2806.67,350.80,321.42,29.93,0000 0000 0000 0000 000000